Weather History for KNDZ - January, 2014

Change the Weather History Date:

Tuesday, January 28, 2014

  Actual Average (KNSE) Record (KNSE)
Temperature  
Mean Temperature 36 °F -  
Max Temperature 46 °F 59 °F 75 °F (2013)
Min Temperature 25 °F 42 °F 24 °F (2014)
Degree Days  
Heating Degree Days 29    
Moisture  
Dew Point 24 °F    
Average Humidity 75    
Maximum Humidity 89    
Minimum Humidity 34    
Precipitation  
Precipitation 0.44 in - - ()
Sea Level Pressure  
Sea Level Pressure 30.15 in    
Wind  
Wind Speed 16 mph (North)    
Max Wind Speed 20 mph    
Max Gust Speed 28 mph    
Visibility 9 miles    
Events Rain    
Averages and records for this station are not official NWS values.
T = Trace of Precipitation, MM = Missing Value Source: NWS Daily Summary

Daily Weather History Graph

Daily Weather History Graph

Search for Another Location

Airport or City:

Trip Planner

Search our weather history database for the weather conditions in past years. The results will help you decide how hot, cold, wet, or windy it might be!

Date:

Astronomy

Jan. 28, 2014 Rise Set
Actual Time 6:41 AM CST 5:20 PM CST
Civil Twilight 6:16 AM CST 5:46 PM CST
Nautical Twilight 5:47 AM CST 6:15 PM CST
Astronomical Twilight 5:18 AM CST 6:43 PM CST
Moon 4:20 AM CST (1/28) 3:12 PM CST (1/28)
Length of Visible Light 11h 29m
Length of Day
10h 39m
Waning Crescent, 7% of the Moon is Illuminated
Jan 28
Waning Crescent
Jan 30
New
Feb 6
First Quarter
Feb 14
Full
Feb 22
Last Quarter

Hourly Weather History & Observations

Time (CST) Temp. Windchill Dew Point Humidity Pressure Visibility Wind Dir Wind Speed Gust Speed Precip Events Conditions
12:56 AM 46.0 °F 39.3 °F 24.1 °F 42% 30.04 in 10.0 mi North 16.1 mph 21.9 mph N/A   Overcast
1:56 AM 43.0 °F 35.4 °F 19.0 °F 38% 30.03 in 10.0 mi North 16.1 mph - N/A   Partly Cloudy
2:56 AM 41.0 °F 33.9 °F 18.0 °F 40% 30.02 in 10.0 mi North 12.7 mph - N/A   Clear
3:56 AM 39.9 °F 31.8 °F 15.1 °F 36% 30.04 in 10.0 mi North 15.0 mph 20.7 mph N/A   Overcast
4:56 AM 39.0 °F 31.8 °F 14.0 °F 36% 30.04 in 10.0 mi North 11.5 mph - N/A   Overcast
5:56 AM 37.9 °F 28.9 °F 12.0 °F 35% 30.08 in 10.0 mi North 16.1 mph - N/A   Overcast
6:56 AM 37.0 °F 28.5 °F 12.0 °F 36% 30.10 in 10.0 mi North 13.8 mph - N/A   Overcast
7:56 AM 36.0 °F 27.5 °F 10.9 °F 36% 30.11 in 10.0 mi North 12.7 mph - N/A   Overcast
8:56 AM 36.0 °F 26.3 °F 10.0 °F 34% 30.14 in 10.0 mi North 16.1 mph - N/A   Overcast
9:56 AM 36.0 °F 26.0 °F 10.0 °F 34% 30.16 in 10.0 mi North 17.3 mph 21.9 mph N/A   Overcast
10:56 AM 35.1 °F 26.4 °F 17.1 °F 48% 30.12 in 10.0 mi North 12.7 mph - 0.00 in Rain Light Rain
11:29 AM 33.1 °F 21.9 °F 18.0 °F 54% 30.18 in 10.0 mi North 18.4 mph - 0.00 in Rain Light Rain
11:56 AM 32.0 °F 21.2 °F 21.9 °F 66% 30.14 in 10.0 mi North 16.1 mph - 0.01 in Rain Light Rain
12:06 PM 30.9 °F 19.8 °F 21.9 °F 69% 30.15 in 10.0 mi North 16.1 mph - 0.00 in   Overcast
12:27 PM 30.9 °F 19.4 °F 25.0 °F 79% 30.15 in 8.0 mi North 17.3 mph - 0.02 in Rain Light Freezing Rain
12:36 PM 30.9 °F 19.1 °F 26.1 °F 82% 30.15 in 9.0 mi North 18.4 mph 24.2 mph 0.03 in Rain Light Freezing Rain
12:56 PM 30.9 °F 19.8 °F 26.1 °F 82% 30.11 in 10.0 mi North 16.1 mph - 0.05 in Rain Light Freezing Rain
1:05 PM 30.9 °F 19.8 °F 26.1 °F 82% 30.14 in 10.0 mi North 16.1 mph 24.2 mph 0.02 in Rain Light Freezing Rain
1:47 PM 30.9 °F 19.4 °F 27.0 °F 85% 30.14 in 10.0 mi North 17.3 mph 24.2 mph 0.07 in Rain Light Freezing Rain
1:56 PM 30.9 °F 21.2 °F 28.0 °F 89% 30.09 in 7.0 mi North 12.7 mph - 0.09 in Rain Light Freezing Rain
2:04 PM 30.9 °F 20.2 °F 28.0 °F 89% 30.12 in 8.0 mi North 15.0 mph - 0.01 in Rain Light Freezing Rain
2:13 PM 30.9 °F 19.8 °F 27.0 °F 85% 30.14 in 10.0 mi North 16.1 mph 23.0 mph 0.01 in Rain Light Freezing Rain
2:24 PM 30.9 °F 19.8 °F 27.0 °F 85% 30.12 in 9.0 mi North 16.1 mph - 0.03 in Rain Light Freezing Rain
2:46 PM 32.0 °F 22.5 °F 28.0 °F 85% 30.12 in 10.0 mi North 12.7 mph - 0.05 in Rain Light Freezing Rain
2:51 PM 32.0 °F 22.5 °F 28.4 °F 87% 30.13 in 10.0 mi North 12.7 mph - 0.05 in Rain Light Freezing Rain
2:56 PM 32.0 °F 20.8 °F 28.0 °F 85% 30.10 in 10.0 mi North 17.3 mph - 0.05 in Rain Light Freezing Rain
3:33 PM 32.0 °F 21.6 °F 28.9 °F 88% 30.11 in 10.0 mi North 15.0 mph - 0.03 in   Overcast
3:40 PM 32.0 °F 21.2 °F 28.9 °F 88% 30.12 in 10.0 mi North 16.1 mph 23.0 mph 0.03 in Rain Light Freezing Rain
3:56 PM 32.0 °F 21.6 °F 28.9 °F 88% 30.10 in 7.0 mi North 15.0 mph - 0.05 in Rain Light Freezing Rain
4:06 PM 32.0 °F 22.5 °F 28.0 °F 85% 30.15 in 9.0 mi North 12.7 mph - 0.01 in Rain Light Freezing Rain
4:19 PM 32.0 °F 20.8 °F 28.9 °F 88% 30.15 in 6.0 mi North 17.3 mph - 0.03 in Rain Light Freezing Rain
4:35 PM 32.0 °F 22.1 °F 28.9 °F 88% 30.16 in 6.0 mi North 13.8 mph - 0.06 in Rain Light Freezing Rain
4:45 PM 32.0 °F 22.5 °F 28.9 °F 88% 30.16 in 7.0 mi North 12.7 mph - 0.07 in Rain Light Freezing Rain
4:56 PM 32.0 °F 21.2 °F 28.9 °F 88% 30.13 in 5.0 mi NNW 16.1 mph - 0.09 in Rain Light Freezing Rain
5:12 PM 32.0 °F 20.5 °F 28.9 °F 88% 30.16 in 8.0 mi North 18.4 mph 24.2 mph 0.02 in Rain Light Freezing Rain
5:34 PM 30.9 °F 18.7 °F 28.0 °F 89% 30.17 in 10.0 mi North 19.6 mph - 0.04 in Rain Light Freezing Rain
5:52 PM 32.0 °F 22.1 °F 28.4 °F 87% 30.17 in 10.0 mi North 13.8 mph 21.9 mph 0.05 in Rain Light Freezing Rain
5:56 PM 30.9 °F 20.2 °F 28.0 °F 89% 30.14 in 10.0 mi North 15.0 mph - 0.05 in Rain Light Freezing Rain
6:04 PM 30.9 °F 21.2 °F 28.0 °F 89% 30.18 in 8.0 mi North 12.7 mph - 0.00 in   Overcast
6:32 PM 30.0 °F 18.7 °F 26.1 °F 85% 30.19 in 10.0 mi North 16.1 mph 24.2 mph 0.01 in Rain Light Freezing Rain
6:39 PM 30.0 °F 19.1 °F 26.1 °F 85% 30.19 in 10.0 mi North 15.0 mph 24.2 mph 0.01 in Rain Light Freezing Rain
6:43 PM 30.0 °F 20.0 °F 27.0 °F 88% 30.19 in 10.0 mi North 12.7 mph 24.2 mph 0.01 in   Overcast
6:56 PM 30.0 °F 17.9 °F 25.0 °F 82% 30.17 in 10.0 mi North 18.4 mph 24.2 mph 0.01 in   Overcast
7:16 PM 28.9 °F 16.1 °F 25.0 °F 85% 30.22 in 10.0 mi NNW 19.6 mph 25.3 mph N/A   Overcast
7:46 PM 28.9 °F 17.7 °F 25.0 °F 85% 30.23 in 10.0 mi North 15.0 mph 25.3 mph N/A   Overcast
7:56 PM 28.9 °F 17.7 °F 25.0 °F 85% 30.19 in 10.0 mi North 15.0 mph - N/A   Overcast
8:14 PM 28.0 °F 16.5 °F 25.0 °F 88% 30.22 in 8.0 mi North 15.0 mph - 0.00 in   Overcast
8:49 PM 27.0 °F 14.3 °F 23.0 °F 85% 30.25 in 8.0 mi North 17.3 mph 24.2 mph 0.02 in   Overcast
8:56 PM 27.0 °F 15.2 °F 23.0 °F 85% 30.23 in 7.0 mi North 15.0 mph 24.2 mph 0.02 in   Overcast
9:13 PM 26.1 °F 12.3 °F 21.0 °F 81% 30.25 in 10.0 mi North 19.6 mph 27.6 mph 0.01 in Rain Light Freezing Rain
9:29 PM 26.1 °F 12.3 °F 21.9 °F 84% 30.26 in 10.0 mi North 19.6 mph 25.3 mph 0.01 in Rain Light Freezing Rain
9:36 PM 26.1 °F 13.1 °F 21.9 °F 84% 30.28 in 10.0 mi North 17.3 mph - 0.01 in Rain Light Freezing Rain
9:56 PM 26.1 °F 12.3 °F 21.9 °F 84% 30.25 in 10.0 mi North 19.6 mph 25.3 mph 0.02 in   Overcast
10:56 PM 26.1 °F 14.0 °F 21.0 °F 81% 30.24 in 10.0 mi North 15.0 mph - 0.00 in   Overcast
11:21 PM 26.1 °F 12.7 °F 21.0 °F 81% 30.25 in 10.0 mi North 18.4 mph 27.6 mph N/A   Overcast
11:56 PM 25.0 °F 10.9 °F 21.0 °F 85% 30.23 in 10.0 mi North 19.6 mph - N/A   Overcast